Regional Weather Roundup
Issued by NWS

Home | Current Version | Previous Version | Graphics & Text | Print | Product List | Glossary On
Versions: 1 2 3 4 5 6 7 8 9 10 11 12 13 14 15 16 17 18 19 20 21 22 23 24 25 26 27 28 29 30 31 32 33 34 35 36 37 38 39 40 41 42 43 44 45 46 47 48 49 50
000
ASUS45 KBOU 281310
RWRCO

WEATHER ROUNDUP FOR COLORADO
NATIONAL WEATHER SERVICE DENVER/BOULDER CO
700 AM MDT WED SEP 28 2016

NOTE: "FAIR" INDICATES FEW OR NO CLOUDS BELOW 12000 FEET WITH NO
SIGNIFICANT WEATHER AND/OR OBSTRUCTIONS TO VISIBILITY.

COZ001>005-013-030-031-281400-
...NORTHWEST COLORADO...

CITY           SKY/WX    TMP DP  RH WIND       PRES   REMARKS
CRAIG          FAIR      33  30  88 SW6       30.34R WCI  28
HAYDEN         FAIR      43  30  61 E18       30.34S
MEEKER         FAIR      40  36  86 CALM      30.33R
MOUNT WERNER   NOT AVBL
STEAMBOAT SPGS FAIR      36  32  86 CALM      30.37S
WALDEN           N/A     30  23  74 SE6       30.47R WCI  24
$$

COZ006>008-011-281400-
...WEST CENTRAL VALLEYS...

CITY           SKY/WX    TMP DP  RH WIND       PRES   REMARKS
GRAND JUNCTION FAIR      52  38  58 SE7       30.23R
MONTROSE       FAIR      44  36  73 S7        30.32R
EAGLE          CLEAR     37  30  75 CALM      30.42R
RIFLE          FAIR      45  38  76 CALM      30.30R
DELTA          FAIR      47  37  67 CALM      30.29R
NUCLA          FAIR      46  34  61 SE7       30.33R
$$

COZ017>023-064>068-281400-
...SOUTHWEST COLORADO...

CITY           SKY/WX    TMP DP  RH WIND       PRES   REMARKS
DURANGO        FAIR      36  31  82 NE5       30.34R
CORTEZ         FAIR      40  35  83 CALM      30.30R
PAGOSA SPRINGS FAIR      37  29  74 CALM      30.40S
TELLURIDE      FAIR      44  33  66 SE6       30.49R
WOLF CREEK PAS FAIR      43  23  45 MISG      30.66S
$$

COZ009-010-012-014-032>034-037-058>063-281400-
...CENTRAL COLORADO...

CITY           SKY/WX    TMP DP  RH WIND       PRES   REMARKS
ASPEN          FAIR      39  31  72 VRB3      30.41R
BUENA VISTA    FAIR      41  27  56 CALM      30.47R
COPPER MTN     FAIR      46  23  39 S13       30.66S
BERTHOUD PASS  FAIR      36  23  60 E17G26    30.70R
COTTONWOOD PAS FAIR      54  23  30 W7        30.55R
GUNNISON       FAIR      33  27  78 NE5       30.47R WCI  29
KREMMLING      FAIR      30  23  74 CALM      30.47R
LEADVILLE      FAIR      34  23  64 CALM      30.54R
MONARCH PASS   FAIR      41  25  52 E9        30.76R
SALIDA         FAIR      43  28  56 W3        30.52R
SUNLIGHT       FAIR      46  30  53 E7        30.59S
WILKERSON PASS FAIR      43  19  39 E9        30.67R
$$

COZ069>075-281400-
...SAN LUIS VALLEY/SANGRE DE CRISTO MOUNTAINS...

CITY           SKY/WX    TMP DP  RH WIND       PRES   REMARKS
ALAMOSA        FAIR      27  22  81 S5        30.42R WCI  22
LA VETA PASS   FAIR      45  27  49 MISG      30.55R
SAGUACHE       NOT AVBL
$$

COZ035-036-038>040-281400-
...NORTHERN COLORADO FRONT RANGE...

CITY           SKY/WX    TMP DP  RH WIND       PRES   REMARKS
DENVER INTL AP FAIR      50  29  44 SW9       30.30R
DMNS CITY PARK   N/A     51  32  48 S5        30.31R
AURORA         CLEAR     51  29  42 SW6       30.32R
FRONT RANGE AP CLEAR     54  30  40 SW9       30.31
ERIE MUNI ARPT FAIR      43  33  68 CALM      30.29R
BOULDER MUN AP FAIR      54  32  43 SW3       30.29R
CENTENNIAL     FAIR      47  29  49 CALM      30.32R
BROOMFIELD     CLEAR    N/A N/A N/A W8        30.32R
FORT COLLINS   FAIR      48  34  57 N9        30.29S
LONGMONT       FAIR      47  36  67 CALM      30.31R
$$

COZ041-046-047-076>085-087-088-281400-
...PIKES PEAK/PALMER DIVIDE AND SOUTHERN FOOTHILLS...

CITY           SKY/WX    TMP DP  RH WIND       PRES   REMARKS
COLO. SPRINGS  FAIR      54  28  36 N8        30.34R
A. F. ACADEMY  FAIR      43  25  49 N13       30.36R
SCHRIEVER AFB  NOT AVBL
ELLICOTT       NOT AVBL
FALCON         FAIR      55  26  33 NW8       30.38R
FORT CARSON    FAIR      54  28  36 NW9       30.30R
LIMON          FAIR      43  26  51 NW5       30.30R
MONUMENT HILL  FAIR      43  27  52 MISG      30.40R
TRINIDAD       FAIR      49  30  48 W15       30.29R
$$

COZ042>045-048>051-090-091-281400-
...NORTHEAST COLORADO...

CITY           SKY/WX    TMP DP  RH WIND       PRES   REMARKS
GREELEY ARPT   FAIR      41  34  75 N8        30.28R
AKRON          FAIR      46  30  53 W10       30.26R
BURLINGTON     FAIR      45  34  65 W8        30.22R
WRAY           NOT AVBL
STERLING       FAIR      37  32  81 CALM      30.24R
HOLYOKE        FAIR      46  37  71 NW7       30.22R
FORT MORGAN    FAIR      44  34  68 NW8       30.27R
$$

COZ086-089-092>099-281400-
...SOUTHEAST COLORADO...

CITY           SKY/WX    TMP DP  RH WIND       PRES   REMARKS
PUEBLO         FAIR      50  30  46 W8        30.24R
LA JUNTA       FAIR      48  35  60 W10       30.21R
LAMAR          FAIR      44  34  67 SW9       30.17R
SPRINGFIELD    NOT AVBL
$$



USA.gov is the U.S. government's official web portal to all federal, state and local government web resources and services.